Location: Allos
(44.2333°N, 6.6333°E)
Time: 02:47:45
(UTC+00:00)

X-37B - Pass Details

Date: 12 March 2021
Orbit: 380 x 394 km, 45.0° (Epoch: 07 April)

Event Time Altitude Azimuth Distance (km) Brightness Sun altitude
Rises 19:52:18 0° 252° (WSW) 2,270 5.2 -24.8°
Reaches altitude 10° 19:54:22 10° 250° (WSW) 1,419 4.0 -25.1°
Enters shadow 19:55:24 19° 248° (WSW) 1,003 3.1 -25.3°
